[[{"header":{"parameterUnit":"m.s-1","parameterCategory":1,"la1":30.2991,"la2":30.254,"lo1":-89.0895,"lo2":-89.0444,"dy":0.0017,"dx":0.0017,"nx":28,"ny":28,"refTime":"2024-05-07T09:00:00:Z","depth":0,"parameterNumber":2,"parameterNumberName":"U-component_of_WINDS"},"data":[0,0,0,0,0,0,0,0,0,0,0,0,0,0,0,0,0,0,0,0,0,0,0,0,0,0,0,0,0,0,0,0,0,0,0,0,0,0,0,0,0,0,0,0,0,0,0,0,0,0,0,0,0,0,0,0,0,0,0.36,0.36,0,0.3587,0.3587,0.3587,0.3556,0.3555,0.3555,0.3554,0.3541,0.3541,0.3542,0,0,0,0,0,0,0,0,0,0,0,0,0,0.3599,0.3599,0.36,0.36,0.36,0.3587,0.3587,0.3587,0.3556,0.3555,0.3555,0.3554,0.3541,0.3541,0.3542,0,0,0,0,0,0,0,0,0,0,0,0,0,0.3594,0.3599,0.36,0.3583,0.3581,0.3587,0.3587,0.3587,0.3556,0.3555,0.3554,0.3553,0.3541,0.3541,0.3542,0.3563,0,0,0.3543,0.3543,0,0,0,0,0,0,0,0,0.3594,0.3594,0.3586,0.3584,0.3582,0.3572,0.3582,0.3579,0.3556,0.3566,0.3554,0.3553,0.3552,0.3552,0.3551,0.3562,0.3562,0.3543,0.3543,0.3543,0.3543,0,0,0,0,0,0,0,0.3595,0.3594,0.3595,0.3586,0.3584,0.3576,0.3574,0.3581,0.3565,0.3565,0.3563,0.3561,0.3551,0.3551,0.3551,0.3562,0.3543,0.3543,0.3543,0.3543,0.3589,0.359,0,0,0,0,0,0,0.3598,0.3595,0.3595,0.3595,0.3586,0.3577,0.3575,0.3576,0.3564,0.3562,0.3562,0.356,0.3551,0.355,0.355,0.3574,0.3543,0.3543,0.3544,0.3588,0.3589,0.3591,0,0,0,0,0,0,0.3598,0.3598,0.3596,0.3594,0.3593,0.3578,0.358,0.3577,0.3576,0.3562,0.3559,0.3565,0.355,0.355,0.356,0.3573,0.3544,0.3544,0.3587,0.3589,0.359,0.3622,0,0,0,0,0,0,0.3598,0.3598,0.3606,0.3595,0.3594,0.3606,0.3581,0.3577,0.3577,0.3574,0.3564,0.3562,0.3549,0.3559,0.356,0.3573,0.3544,0.3586,0.3588,0.359,0.3619,0.3624,0.3628,0,0,0,0,0,0.3598,0.3616,0.3607,0.3607,0.3603,0.3607,0.3606,0.3591,0.3578,0.3586,0.3577,0.3562,0.3572,0.3561,0.3561,0.3574,0.3585,0.3587,0.3589,0.3618,0.3623,0.3628,0,0,0,0,0,0,0.3629,0.3614,0.3604,0.3618,0.3614,0.3602,0.3611,0.3598,0.3597,0.3594,0.3576,0.3574,0.3587,0.3582,0.357,0.3594,0.3576,0.3578,0.3597,0.3602,0.3607,0.3607,0.3545,0,0,0,0,0,0.3638,0.3642,0.3628,0.3643,0.3641,0.3627,0.3628,0.3616,0.3611,0.3609,0.3601,0.3597,0.3599,0.36,0.3601,0.3619,0.3616,0.3628,0.3632,0.3636,0.3638,0.3646,0.3651,0.3598,0.3598,0.3598,0,0,0.3656,0.3648,0.3652,0.3649,0.3644,0.3649,0.3625,0.3631,0.3634,0.361,0.3619,0.3613,0.3607,0.3621,0.3627,0.3617,0.3652,0.3639,0.3642,0.3642,0.3649,0.3654,0.3659,0.3599,0.3599,0.3599,0,0,0.3691,0.3685,0.3696,0.3692,0.3685,0.3675,0.3678,0.3668,0.3662,0.3671,0.3653,0.3657,0.3661,0.3657,0.3656,0.3689,0.3675,0.369,0.3712,0.3721,0.3725,0.3728,0.374,0.3744,0.3692,0.3692,0.3692,0,0.3714,0.372,0.3704,0.3711,0.371,0.3688,0.3699,0.3696,0.369,0.369,0.3679,0.3683,0.3678,0.369,0.3698,0.3698,0.37,0.3691,0.3725,0.3729,0.3732,0.3743,0.3747,0.3694,0.3694,0.3694,0.3694,0,0.3748,0.3752,0.3762,0.3757,0.3757,0.3766,0.3751,0.3754,0.3743,0.3734,0.3743,0.3736,0.3735,0.3737,0.3726,0.3748,0.3742,0.3729,0.371,0.3739,0.3749,0.3753,0.3697,0.3696,0.3695,0.3695,0,0,0.3801,0.3787,0.3791,0.3788,0.3779,0.3782,0.379,0.3789,0.3791,0.3788,0.3793,0.3797,0.3785,0.3783,0.3772,0.378,0.3806,0.3766,0.3765,0.3773,0.3828,0.3837,0.3842,0.3797,0.3798,0.3798,0.3828,0,0.3833,0.3846,0.3832,0.3847,0.3851,0.383,0.3837,0.3833,0.3825,0.3827,0.3818,0.3821,0.3805,0.3804,0.381,0.3801,0.3817,0.3799,0.3802,0.3802,0.3803,0.3847,0.3857,0.3886,0.3832,0.3833,0.3833,0,0.3872,0.387,0.3886,0.3875,0.3876,0.3883,0.388,0.3883,0.3877,0.3871,0.3869,0.3856,0.3863,0.3845,0.3854,0.3843,0.3843,0.3839,0.384,0.3839,0.3819,0.3847,0.3895,0.3899,0.3839,0.3838,0.3838,0,0.3908,0.391,0.3919,0.3917,0.3906,0.3911,0.3906,0.3899,0.39,0.3898,0.3897,0.3897,0.3896,0.3896,0.3882,0.3871,0.3893,0.3874,0.3888,0.3888,0.3893,0.3892,0.3941,0.3894,0.3894,0.3894,0.3894,0,0.3944,0.3955,0.3935,0.3941,0.3952,0.3936,0.3947,0.394,0.3934,0.3938,0.3921,0.3926,0.3908,0.3911,0.3901,0.3909,0.391,0.3904,0.3901,0.3905,0.3906,0.3905,0.3902,0.3895,0.3895,0.3895,0.3895,0,0.3986,0.3974,0.3983,0.3971,0.3968,0.3977,0.3967,0.3971,0.3963,0.3968,0.3968,0.3955,0.3957,0.3944,0.3943,0.3937,0.395,0.3944,0.3952,0.395,0.3963,0.3962,0.4012,0.4017,0.3969,0.3969,0.397,0,0.401,0.4017,0.4006,0.4008,0.4004,0.4006,0.4006,0.3991,0.3992,0.3986,0.3991,0.3992,0.3991,0.3995,0.3985,0.3985,0.3978,0.3996,0.3978,0.3981,0.3977,0.3977,0.3977,0.3999,0.4,0.4,0.4001,0,0.4052,0.4046,0.4046,0.4045,0.4045,0.4043,0.404,0.4042,0.4026,0.4027,0.4029,0.4028,0.4028,0.4029,0.4026,0.4021,0.4008,0.4006,0.4009,0.4013,0.4017,0.4014,0.3961,0.4005,0.4005,0.4004,0.4004,0.4004,0.4085,0.409,0.4083,0.4084,0.408,0.4078,0.4082,0.4074,0.4075,0.4073,0.4064,0.4067,0.4061,0.4057,0.4053,0.4056,0.4047,0.4052,0.4052,0.4054,0.4056,0.4017,0.4055,0.4055,0.4055,0.4055,0.4055,0,0.4126,0.412,0.4122,0.4118,0.4119,0.4106,0.4102,0.4104,0.4107,0.4102,0.4102,0.4104,0.4104,0.4095,0.4094,0.4098,0.4092,0.4098,0.4097,0.4096,0.4064,0.4061,0.4103,0.4103,0.4103,0.4103,0.4103,0.4103,0.4147,0.4155,0.4148,0.4154,0.4149,0.4151,0.415,0.4148,0.4144,0.4147,0.4147,0.4141,0.4134,0.4133,0.4133,0.413,0.413,0.4138,0.4133,0.4103,0.4098,0.4094,0.4091,0.4139,0.4139,0.4165,0.4166,0.4166]},{"header":{"parameterUnit":"m.s-1","parameterCategory":1,"la1":30.2991,"la2":30.254,"lo1":-89.0895,"lo2":-89.0444,"dy":0.0017,"dx":0.0017,"nx":28,"ny":28,"refTime":"2024-05-07T09:00:00:Z","depth":0,"parameterNumber":3,"parameterNumberName":"V-component_of_WINDS"},"data":[0,0,0,0,0,0,0,0,0,0,0,0,0,0,0,0,0,0,0,0,0,0,0,0,0,0,0,0,0,0,0,0,0,0,0,0,0,0,0,0,0,0,0,0,0,0,0,0,0,0,0,0,0,0,0,0,0,0,5.6948,5.6948,0,5.6952,5.6952,5.6952,5.6888,5.6886,5.6884,5.6883,5.6885,5.6887,5.6888,0,0,0,0,0,0,0,0,0,0,0,0,0,5.6883,5.6885,5.6948,5.6948,5.6948,5.6952,5.6952,5.6952,5.6888,5.6886,5.6884,5.6882,5.6885,5.6887,5.6889,0,0,0,0,0,0,0,0,0,0,0,0,0,5.6902,5.6885,5.6948,5.6917,5.6914,5.6952,5.6952,5.6952,5.6889,5.6886,5.6883,5.6881,5.6884,5.6886,5.6889,5.6956,0,0,5.6896,5.6898,0,0,0,0,0,0,0,0,5.6901,5.6904,5.6921,5.6919,5.6916,5.6917,5.693,5.6953,5.6889,5.6898,5.6883,5.688,5.6898,5.6899,5.6905,5.6956,5.6956,5.6897,5.6898,5.6899,5.69,0,0,0,0,0,0,0,5.69,5.6904,5.6949,5.6921,5.6918,5.6902,5.6902,5.6934,5.6912,5.6897,5.6893,5.6894,5.6896,5.6903,5.6905,5.6956,5.6897,5.6899,5.69,5.6901,5.7062,5.7065,0,0,0,0,0,0,5.6903,5.6903,5.6949,5.6949,5.6902,5.6905,5.6905,5.6919,5.6912,5.6908,5.6896,5.6891,5.69,5.6902,5.6905,5.6982,5.6899,5.6902,5.6903,5.706,5.7063,5.7066,0,0,0,0,0,0,5.6902,5.6907,5.6949,5.6925,5.6929,5.6909,5.6925,5.692,5.6928,5.6911,5.6907,5.6908,5.6898,5.6901,5.6944,5.6981,5.6903,5.6905,5.7056,5.7061,5.7064,5.7139,0,0,0,0,0,0,5.69,5.6907,5.6933,5.6926,5.6931,5.6989,5.6928,5.6922,5.6932,5.6926,5.6921,5.6917,5.6896,5.694,5.6946,5.6983,5.6907,5.7053,5.7058,5.7063,5.7133,5.7145,5.7155,0,0,0,0,0,5.6898,5.6953,5.6935,5.6941,5.6962,5.6991,5.6993,5.6968,5.6936,5.6961,5.695,5.6918,5.6977,5.6945,5.6951,5.699,5.705,5.7057,5.7063,5.7128,5.7142,5.7155,0,0,0,0,0,0,5.6964,5.6952,5.6931,5.6986,5.699,5.698,5.7011,5.6985,5.6998,5.6991,5.6959,5.6958,5.7006,5.7002,5.6968,5.7054,5.7008,5.7015,5.7055,5.7069,5.708,5.7079,5.6909,0,0,0,0,0,5.6986,5.7011,5.6998,5.7048,5.7051,5.7031,5.7043,5.7023,5.7026,5.7027,5.702,5.7023,5.7042,5.7056,5.7072,5.7132,5.713,5.7162,5.7173,5.7183,5.7189,5.722,5.7234,5.7086,5.7086,5.7086,0,0,5.7029,5.7026,5.7043,5.7061,5.7062,5.7088,5.7033,5.7063,5.7081,5.7031,5.7071,5.7066,5.7068,5.7119,5.7142,5.7118,5.723,5.719,5.7198,5.7199,5.7228,5.7242,5.7254,5.7091,5.709,5.7089,0,0,5.7122,5.7122,5.7163,5.7166,5.7168,5.7155,5.7165,5.7159,5.7154,5.7194,5.7157,5.7179,5.7213,5.7215,5.7221,5.7316,5.7286,5.7323,5.7381,5.7411,5.7423,5.7433,5.7466,5.7479,5.733,5.733,5.733,0,5.7175,5.7213,5.7187,5.722,5.7229,5.7186,5.7227,5.7231,5.7238,5.7245,5.7219,5.7261,5.7259,5.731,5.7334,5.734,5.735,5.7322,5.7424,5.7434,5.7443,5.7474,5.7486,5.7334,5.7334,5.7333,5.7333,0,5.7279,5.7306,5.7339,5.7348,5.7361,5.7398,5.7377,5.7393,5.7373,5.7362,5.7403,5.74,5.7415,5.7426,5.7407,5.7475,5.746,5.7429,5.7381,5.7461,5.749,5.7502,5.7341,5.7339,5.7338,5.7337,0,0,5.7411,5.7407,5.7419,5.7423,5.7424,5.7444,5.7479,5.7494,5.7508,5.7516,5.7543,5.7574,5.7546,5.7553,5.7533,5.756,5.7635,5.7526,5.7525,5.7545,5.7709,5.7731,5.7746,5.7616,5.7618,5.762,5.7709,0,5.75,5.756,5.7538,5.7599,5.7623,5.7584,5.7614,5.7617,5.7609,5.7628,5.7618,5.764,5.7601,5.7605,5.7631,5.7621,5.7667,5.7614,5.764,5.7642,5.764,5.7761,5.7784,5.7868,5.772,5.7722,5.7723,0,5.7611,5.7624,5.7688,5.7684,5.7694,5.7721,5.7734,5.7754,5.7757,5.7748,5.7757,5.7732,5.7765,5.7719,5.7764,5.7728,5.7738,5.7735,5.7738,5.7738,5.7686,5.7763,5.7894,5.7906,5.7741,5.7739,5.7738,0,5.77,5.7733,5.7776,5.778,5.7778,5.7798,5.7798,5.7798,5.7809,5.7821,5.7827,5.7843,5.785,5.7863,5.7842,5.781,5.789,5.7842,5.7883,5.7884,5.79,5.7899,5.8034,5.7909,5.7909,5.7909,5.7909,0,5.7801,5.7841,5.7815,5.7841,5.7885,5.786,5.7904,5.7899,5.79,5.7924,5.7891,5.7914,5.7886,5.7907,5.7891,5.793,5.7935,5.7928,5.7923,5.793,5.7931,5.7935,5.7928,5.7912,5.7911,5.7911,5.791,0,5.7907,5.7891,5.7935,5.7929,5.7929,5.7961,5.7956,5.7979,5.7969,5.8,5.8006,5.7989,5.8011,5.7993,5.8014,5.8004,5.8056,5.8043,5.8055,5.8051,5.8093,5.8089,5.8233,5.825,5.8116,5.8118,5.8119,0,5.7971,5.8001,5.7999,5.8013,5.8016,5.8039,5.805,5.8027,5.804,5.8046,5.8069,5.8089,5.8103,5.814,5.813,5.8146,5.8133,5.8182,5.8135,5.8141,5.8132,5.813,5.8132,5.8191,5.8193,5.8194,5.8195,0,5.8087,5.8078,5.8096,5.8112,5.8127,5.8138,5.8147,5.816,5.8136,5.8153,5.8176,5.8187,5.821,5.8229,5.8242,5.8241,5.8214,5.8211,5.8221,5.8228,5.8233,5.8229,5.808,5.8207,5.8206,5.8205,5.8204,5.8204,5.8172,5.8197,5.82,5.8222,5.8226,5.8235,5.8257,5.825,5.8269,5.8286,5.8271,5.8299,5.8301,5.8316,5.8319,5.8339,5.8318,5.8333,5.8337,5.8341,5.8346,5.8231,5.8342,5.8341,5.8341,5.8341,5.834,0,5.8285,5.8286,5.8306,5.832,5.8337,5.8312,5.832,5.8335,5.836,5.8366,5.8381,5.8407,5.8426,5.8418,5.8435,5.8453,5.8441,5.8458,5.8456,5.8456,5.8364,5.8353,5.8468,5.8467,5.8467,5.8467,5.8467,5.8467,5.8346,5.8386,5.8379,5.8421,5.8421,5.8448,5.8455,5.8463,5.8467,5.8498,5.8514,5.851,5.8509,5.8526,5.8543,5.854,5.8547,5.8568,5.8561,5.8475,5.8462,5.845,5.844,5.857,5.857,5.865,5.8651,5.8651]}]]